Torna al catalogo

FENGYUN 1C DEB

AttivoPO
NORAD 30445·DEBRIS·🇨🇳 China

Lanciato May 10, 1999 da Taiyuan Satellite Launch Center

Loading…

Prossimi Passaggi (prossime 24 ore)

TLE

AggiornatoSource: Space-Track

Epoca: Sep 14, 2026, 08:54 UTC

1 30445U 99025AFG 26257.37142596  .00001051  00000-0  26800-3 0  9996
2 30445  98.8672 227.3542 0102202 268.2476  90.7008 14.49887346 31759

Traccia FENGYUN 1C DEB in tempo reale con AllMySat

Download on the App Store